Weather observations for the past three days for
St. George, St. George Airport
Imperial (Metric)
Date Time (akdt) Wind (mph) Vis. (mi.) Weather Sky Cond. Temperature (ºF) Relative Humidity Wind Chill (°F) Heat Index (°F) Pressure Precipitation (in)
Air Dwpt 6 hour altimeter (in) sea level (mb) 1 hr 3 hr 6 hr
Max. Min.
02 16:53 N 18 G 33 2.00 Light Snow Fog/Mist BKN011 OVC016 32 28.9 88% 21 29.99 1014.5
02 15:53 N 15 G 26 5.00 Fog/Mist OVC012 32 28 32 30.9 85% 22 29.98 1013.9
02 14:53 N 20 G 25 8.00 Overcast OVC015 32 28 85% 21 29.96 1013.3
02 13:53 N 15 G 31 10.00 Overcast OVC015 32 27 82% 22 29.95 1012.9
02 12:53 N 16 G 24 9.00 Overcast OVC013 30.9 27 85% 21 29.92 1012.1
02 11:53 N 18 G 26 10.00 Overcast OVC007 30.9 28.9 92% 20 29.9 1011.2
02 10:53 N 16 G 29 10.00 Overcast BKN013 OVC021 32 28.9 88% 22 29.86 1009.9
02 09:53 N 15 G 31 6.00 Fog/Mist SCT014 OVC019 30.9 28 32 30 89% 21 29.83 1009.0
02 08:53 N 17 G 35 8.00 Overcast BKN014 OVC021 30.9 28 89% 20 29.79 1007.7
02 07:53 N 18 G 32 4.00 Light Snow Fog/Mist OVC015 32 28 85% 21 29.76 1006.6
02 06:53 N 20 G 31 8.00 Overcast FEW009 BKN013 OVC018 30.9 27 85% 20 29.73 1005.6
02 05:53 N 25 G 32 4.00 Light Snow Fog/Mist and Breezy BKN012 OVC017 30.9 27 85% 18 29.69 1004.2
02 04:53 N 12 G 25 2.50 Light Snow Fog/Mist BKN010 OVC017 30 28 92% 21 29.67 1003.6
02 03:53 N 14 G 31 2.00 Light Snow Fog/Mist BKN009 OVC015 30.9 28.9 32 30.9 92% 21 29.63 1002.3
02 02:53 N 17 G 32 7.00 Overcast OVC011 30.9 28 89% 20 29.6 1001.2
02 01:53 N 28 G 39 10.00 Overcast and Windy OVC009 32 28.9 88% 19 29.56 999.8
02 00:53 N 30 G 46 10.00 Overcast and Windy OVC008 32 30 92% 18 29.51 998.2
01 23:53 N 30 G 41 4.00 Light Snow Fog/Mist and Windy OVC006 32 30 92% 18 29.48 997.0
01 22:53 N 28 G 38 1.75 Light Snow Fog/Mist and Windy BKN007 OVC012 32 30 92% 19 29.43 995.5
01 21:53 N 26 G 39 1.25 Light Snow Fog/Mist and Windy SCT007 OVC011 32 30.9 33.1 32 96% 19 29.4 994.2
01 20:53 N 28 G 40 1.25 Light Snow Fog/Mist and Windy BKN007 OVC014 32 30.9 96% 19 29.35 992.7
01 19:53 N 25 G 36 4.00 Light Snow Fog/Mist and Breezy OVC008 32 30.9 96% 19 29.32 991.7
01 18:53 N 21 G 30 1.50 Light Snow Fog/Mist and Breezy OVC006 32 30.9 96% 21 29.29 990.8
01 17:53 N 21 G 28 1.50 Light Rain Fog/Mist and Breezy OVC004 33.1 32 96% 22 29.27 989.9
01 16:53 N 22 G 28 1.75 Fog/Mist and Breezy OVC004 33.1 32 96% 22 29.24 989.1
01 15:53 N 17 6.00 Fog/Mist OVC004 32 32 33.1 32 100% 22 29.23 988.5
01 14:53 N 13 G 24 1.50 Light Rain Fog/Mist OVC005 33.1 32 96% 25 29.2 987.8
01 13:53 N 13 1.50 Light Snow Fog/Mist OVC005 32 32 100% 23 29.18 986.9
01 12:53 N 12 1.75 Light Snow Fog/Mist BKN003 OVC011 33.1 33.1 100% 25 29.15 986.0
01 11:53 N 10 1.75 Unknown Precip Fog/Mist BKN003 OVC027 33.1 32 96% 26 29.13 985.3
01 10:53 N 9 3.00 Unknown Precip Fog/Mist BKN003 OVC026 32 32 100% 25 29.11 984.5
01 09:53 N 12 2.00 Unknown Precip Fog/Mist OVC003 32 32 32 32 100% 24 29.09 983.8
01 08:53 NE 10 0.75 Fog/Mist OVC002 32 32 100% 24 29.07 983.4
01 07:53 NE 8 1.50 Light Freezing Rain Fog/Mist OVC004 32 32 100% 25 29.07 983.1
01 06:53 NE 9 1.50 Light Freezing Rain Fog/Mist FEW003 FEW007 OVC026 32 32 100% 25 29.07 983.2
01 05:53 N 12 G 17 1.75 Unknown Precip Fog/Mist BKN003 BKN013 OVC021 32 32 100% 24 29.07 983.1
01 04:53 NE 6 2.50 Light Freezing Rain Fog/Mist BKN003 OVC019 32 32 100% 27 29.08 983.4
01 03:53 NE 6 1.50 Light Freezing Rain Fog/Mist BKN004 OVC016 32 32 32 30.9 100% 27 29.09 983.8
01 02:53 NE 13 1.00 Fog/Mist VV003 32 30.9 96% 23 29.09 984.0
01 01:53 NE 20 G 29 1.50 Fog/Mist OVC003 32 30.9 96% 21 29.09 983.8
01 00:53 NE 22 G 35 2.50 Light Snow Fog/Mist and Breezy SCT003 OVC027 32 30.9 96% 20 29.09 983.8
30 23:53 NE 22 G 31 2.00 Light Snow Fog/Mist and Breezy SCT003 BKN024 OVC030 32 30.9 96% 20 29.11 984.5
30 22:53 NE 22 G 32 4.00 Light Snow Fog/Mist and Breezy BKN004 BKN009 OVC030 32 30.9 96% 20 29.1 984.4
30 21:53 NE 25 G 37 5.00 Light Snow Fog/Mist and Breezy SCT004 OVC030 32 30.9 34 32 96% 19 29.09 984.0
30 20:53 NE 24 G 35 2.50 Light Snow Fog/Mist and Breezy BKN003 BKN021 OVC030 32 30.9 96% 20 29.1 984.3
30 19:53 NE 28 G 36 3.00 Light Snow Fog/Mist and Windy SCT003 BKN026 OVC032 32 32 100% 19 29.11 984.4
30 18:53 NE 28 G 41 3.00 Light Snow Fog/Mist and Windy SCT004 OVC035 32 30.9 96% 19 29.11 984.7
30 17:53 NE 32 G 41 2.00 Light Snow Fog/Mist and Windy BKN004 OVC014 32 30.9 96% 18 29.12 985.0
30 16:53 NE 30 G 38 8.00 Unknown Precip and Windy OVC004 33.1 30.9 92% 20 29.14 985.7
30 15:53 NE 28 G 36 10.00 Light Rain and Windy OVC004 34 30.9 34 30.9 89% 22 29.17 986.5
30 14:53 NE 30 G 39 10.00 Overcast and Windy OVC004 34 30.9 89% 21 29.17 986.6
30 13:53 NE 25 G 38 10.00 Overcast and Breezy OVC004 34 32 92% 22 29.18 987.1
30 12:53 NE 30 G 38 10.00 Overcast and Windy OVC004 33.1 32 96% 20 29.19 987.2
30 11:53 N 25 G 35 6.00 Fog/Mist and Breezy OVC004 32 30.9 96% 19 29.21 987.8
30 10:53 N 29 G 36 7.00 Overcast and Windy OVC005 30.9 30.9 100% 17 29.21 987.9
30 09:53 N 25 G 37 10.00 Overcast and Breezy OVC004 30.9 30 32 30.9 96% 18 29.22 988.3
30 08:53 NE 25 G 37 6.00 Fog/Mist and Breezy OVC004 30.9 30.9 100% 18 29.23 988.6
30 07:53 NE 25 G 37 9.00 Overcast and Breezy OVC005 30.9 30.9 100% 18 29.24 988.9
30 06:53 NE 23 G 35 3.00 Fog/Mist and Breezy OVC002 30.9 30.9 100% 19 29.25 989.4
30 05:53 NE 21 G 32 1.50 Fog/Mist and Breezy OVC002 30.9 30.9 100% 19 29.27 989.9
30 04:53 N 17 G 29 3.00 Fog/Mist OVC002 32 32 100% 22 29.27 989.9
30 03:53 NE 22 G 32 1.50 Fog/Mist and Breezy OVC002 32 32 34 32 100% 20 29.28 990.2
30 02:53 NE 23 G 32 5.00 Fog/Mist and Breezy OVC002 32 32 100% 20 29.29 990.5
30 01:53 NE 18 G 35 9.00 Light Rain OVC004 33.1 32 96% 23 29.3 990.9
30 00:53 NE 28 G 33 4.00 Unknown Precip Fog/Mist and Windy OVC004 33.1 32 96% 20 29.31 991.4
29 23:53 NE 22 G 32 10.00 Overcast and Breezy OVC005 33.1 32 96% 22 29.34 992.2
29 22:53 NE 22 G 29 10.00 Partly Cloudy and Breezy SCT004 33.1 32 96% 22 29.34 992.2
29 21:53 NE 18 G 29 10.00 Overcast BKN006 OVC019 34 32 43 34 92% 24 29.35 992.6
29 20:53 E 14 9.00 Overcast BKN008 OVC015 36 33.1 89% 28 29.36 993.2
29 19:53 E 15 G 30 10.00 A Few Clouds FEW010 37.9 32 79% 30 29.38 993.7
29 18:53 E 15 10.00 A Few Clouds FEW018 39.9 32 73% 32 29.39 994.0
29 17:53 E 12 G 22 10.00 Mostly Cloudy SCT020 BKN025 42.1 33.1 71% 36 29.4 994.5
Date Time (akdt) Wind (mph) Vis. (mi.) Weather Sky Cond. Air Dwpt Max. Min. Relative Humidity Wind Chill (°F) Heat Index (°F) altimeter (in) sea level (mb) 1 hr 3 hr 6 hr
6 hour
Temperature (ºF) Pressure Precipitation (in)